Location: Suzhou
(31.3110°N, 120.6180°E)
Time: 01:55:43
(UTC+08:00)

RS-15 - Visible Passes

Search period start: 29 May 2024 00:00
Search period end: 08 June 2024 00:00
Orbit: 1896 x 2149 km, 64.8° (Epoch: 27 May)

Date Brightness Start Highest point End Pass type
(mag) Time Alt. Az. Time Alt. Az. Time Alt. Az.
29 May 9.2 01:22:02 10° WNW 01:26:54 18° W 01:26:54 18° W visible
29 May 9.6 20:20:30 10° N 20:26:43 16° NNE 20:32:49 10° ENE visible
29 May 8.0 22:30:51 10° NNW 22:41:46 64° ENE 22:44:11 54° ESE visible
30 May 8.8 00:44:35 10° NW 00:51:55 27° W 00:51:55 27° W visible
30 May 9.7 19:45:27 10° N 19:49:30 12° NNE 19:53:31 10° NE visible
30 May 8.3 21:54:58 10° NNW 22:05:32 49° NE 22:09:14 38° E visible
31 May 8.4 00:07:45 10° NW 00:16:58 39° W 00:16:58 39° W visible
31 May 8.7 21:19:12 10° NNW 21:29:10 37° NE 21:34:18 25° E visible
31 May 8.0 23:31:15 10° NW 23:41:44 54° WSW 23:42:03 54° WSW visible
01 Jun 9.0 20:43:30 10° N 20:52:38 28° NE 20:59:25 16° E visible
01 Jun 7.7 22:55:00 10° NNW 23:05:52 73° WSW 23:07:10 67° SSW visible
02 Jun 9.6 01:14:53 10° W 01:14:54 10° W 01:14:54 10° W visible
02 Jun 9.3 20:07:55 10° N 20:15:53 22° NE 20:23:42 10° E visible
02 Jun 7.7 22:18:52 10° NNW 22:29:55 86° ENE 22:32:18 62° SSE visible
03 Jun 9.3 00:34:24 10° WNW 00:40:03 17° W 00:40:03 17° W visible
03 Jun 9.5 19:32:28 10° N 19:38:56 17° NE 19:45:17 10° ENE visible
03 Jun 7.9 21:42:54 10° NNW 21:53:50 67° ENE 21:57:29 46° ESE visible
03 Jun 8.9 23:56:47 10° NW 00:05:10 26° WSW 00:05:14 26° WSW visible
04 Jun 8.3 21:07:01 10° NNW 21:17:38 51° NE 21:22:42 32° ESE visible
04 Jun 8.5 23:19:53 10° NW 23:29:30 38° WSW 23:30:26 37° WSW visible
05 Jun 8.6 20:31:13 10° NNW 20:41:17 39° NE 20:47:56 21° ESE visible
05 Jun 8.1 22:43:22 10° NW 22:53:45 52° WSW 22:55:41 48° SW visible
06 Jun 8.9 19:55:31 10° NNW 20:04:46 29° NE 20:13:12 12° ESE visible
06 Jun 7.9 22:07:04 10° NNW 22:17:55 70° WSW 22:20:58 52° S visible
07 Jun 9.2 19:19:54 10° N 19:28:03 23° NE 19:36:03 10° E visible
07 Jun 7.8 21:30:57 10° NNW 21:41:58 89° ENE 21:46:16 45° SSE visible
07 Jun 9.3 23:46:47 10° WNW 23:52:44 16° W 23:54:02 16° WSW visible
